| time (UTC) | temp C | wind direction | speed KPH | gust KPH | rain 1hr cm | rain 24hr cm | rain mn cm | humidity % | barometer mb |
| 20260506185119 | 10 | 250 | 0.0 | 0.0 | 0.00 | 0.76 | 0.76 | 88 | 1009.7 |
| 20260506185101 | 10 | 250 | 0.0 | 0.0 | 0.00 | 0.76 | 0.76 | 87 | 1009.7 |
| 20260506184106 | 10 | 250 | 0.0 | 0.0 | 0.00 | 0.76 | 0.76 | 87 | 1009.7 |
| 20260506183604 | 11 | 250 | 0.0 | 0.0 | 0.00 | 0.76 | 0.76 | 86 | 1009.6 |
| 20260506183557 | 11 | 250 | 0.0 | 0.0 | 0.00 | 0.76 | 0.76 | 86 | 1009.5 |
| 20260506183457 | 11 | 250 | 0.0 | 0.0 | 0.00 | 0.76 | 0.76 | 85 | 1009.5 |
| 20260506182808 | 11 | 250 | 0.0 | 0.0 | 0.00 | 0.76 | 0.76 | 85 | 1009.4 |
| 20260506181536 | 11 | 250 | 0.0 | 0.0 | 0.00 | 0.76 | 0.76 | 86 | 1009.4 |
| 20260506181030 | 11 | 250 | 0.0 | 0.0 | 0.00 | 0.76 | 0.76 | 85 | 1009.4 |
| 20260506180524 | 11 | 250 | 0.0 | 0.0 | 0.00 | 0.76 | 0.76 | 84 | 1009.4 |
| 20260506180018 | 11 | 250 | 0.0 | 0.0 | 0.00 | 0.76 | 0.76 | 83 | 1009.4 |
| 20260506175512 | 11 | 250 | 0.0 | 0.0 | 0.00 | 0.76 | 0.76 | 83 | 1009.3 |
| 20260506175006 | 11 | 250 | 0.0 | 0.0 | 0.00 | 0.76 | 0.76 | 83 | 1009.3 |
| 20260506174804 | 11 | 250 | 0.0 | 0.0 | 0.00 | 0.76 | 0.76 | 83 | 1009.3 |
| 20260506174717 | 11 | 250 | 0.0 | 0.0 | 0.00 | 0.76 | 0.76 | 82 | 1009.3 |
| 20260506173448 | 11 | 250 | 0.0 | 0.0 | 0.00 | 0.76 | 0.76 | 83 | 1009.1 |
| 20260506172942 | 11 | 250 | 0.0 | 6.4 | 0.00 | 0.76 | 0.76 | 82 | 1009.1 |
| 20260506172934 | 11 | 250 | 0.0 | 6.4 | 0.00 | 0.76 | 0.76 | 82 | 1009.0 |
| 20260506171930 | 11 | 229 | 0.0 | 0.0 | 0.00 | 0.76 | 0.76 | 81 | 1008.9 |
| 20260506171424 | 11 | 229 | 0.0 | 0.0 | 0.00 | 0.76 | 0.76 | 81 | 1009.0 |
| 20260506170918 | 11 | 229 | 0.0 | 0.0 | 0.00 | 0.76 | 0.76 | 82 | 1008.9 |
| 20260506170412 | 11 | 229 | 0.0 | 0.0 | 0.00 | 0.76 | 0.76 | 83 | 1008.9 |
| 20260506165906 | 11 | 229 | 0.0 | 0.0 | 0.00 | 0.76 | 0.76 | 83 | 1008.8 |
| 20260506165400 | 11 | 229 | 0.0 | 0.0 | 0.00 | 0.76 | 0.76 | 82 | 1008.8 |
| 20260506164854 | 11 | 229 | 0.0 | 0.0 | 0.00 | 0.76 | 0.76 | 81 | 1008.8 |
| 20260506164826 | 11 | 229 | 0.0 | 0.0 | 0.00 | 0.76 | 0.76 | 82 | 1008.7 |
| 20260506163337 | 11 | 229 | 0.0 | 0.0 | 0.00 | 0.76 | 0.76 | 80 | 1008.8 |
| 20260506162830 | 11 | 229 | 0.0 | 0.0 | 0.00 | 0.76 | 0.76 | 82 | 1008.8 |
| 20260506162324 | 12 | 229 | 0.0 | 0.0 | 0.00 | 0.76 | 0.76 | 82 | 1008.7 |
| 20260506161819 | 12 | 229 | 0.0 | 0.0 | 0.00 | 0.76 | 0.76 | 82 | 1008.6 |
| 20260506161754 | 12 | 229 | 0.0 | 0.0 | 0.00 | 0.76 | 0.76 | 83 | 1008.8 |
| 20260506160806 | 12 | 229 | 0.0 | 0.0 | 0.00 | 0.76 | 0.76 | 81 | 1008.7 |
| 20260506160300 | 12 | 229 | 0.0 | 0.0 | 0.00 | 0.76 | 0.76 | 79 | 1008.6 |
| 20260506155754 | 11 | 229 | 0.0 | 0.0 | 0.00 | 0.76 | 0.76 | 79 | 1008.6 |
| 20260506155248 | 11 | 229 | 0.0 | 1.6 | 0.00 | 0.76 | 0.76 | 80 | 1008.6 |
| 20260506154742 | 11 | 229 | 0.0 | 8.0 | 0.00 | 0.76 | 0.76 | 78 | 1008.6 |
| 20260506154236 | 12 | 230 | 0.0 | 8.0 | 0.00 | 0.76 | 0.76 | 82 | 1008.6 |
| 20260506154224 | 11 | 219 | 0.0 | 11.3 | 0.00 | 0.76 | 0.76 | 80 | 1008.6 |
| 20260506153228 | 12 | 265 | 0.0 | 11.3 | 0.00 | 0.76 | 0.76 | 82 | 1008.7 |
| 20260506152954 | 12 | 232 | 0.0 | 0.0 | 0.00 | 0.76 | 0.76 | 81 | 1008.6 |
| 20260506152229 | 12 | 232 | 0.0 | 11.3 | 0.00 | 0.76 | 0.76 | 81 | 1008.6 |
| 20260506151727 | 12 | 233 | 0.0 | 11.3 | 0.00 | 0.76 | 0.76 | 81 | 1008.6 |
| 20260506151709 | 12 | 222 | 0.0 | 8.0 | 0.00 | 0.76 | 0.76 | 80 | 1008.6 |
| 20260506150727 | 12 | 235 | 0.0 | 8.0 | 0.00 | 0.76 | 0.76 | 80 | 1008.6 |
| 20260506150226 | 11 | 241 | 0.0 | 6.4 | 0.00 | 0.76 | 0.76 | 80 | 1008.6 |
| 20260506145721 | 11 | 243 | 1.6 | 8.0 | 0.00 | 0.76 | 0.76 | 80 | 1008.6 |
| 20260506145223 | 11 | 254 | 1.6 | 8.0 | 0.00 | 0.76 | 0.76 | 81 | 1008.6 |
| 20260506145049 | 11 | 223 | 0.0 | 8.0 | 0.00 | 0.76 | 0.76 | 82 | 1008.5 |
| 20260506144953 | 11 | 238 | 0.0 | 9.7 | 0.00 | 0.76 | 0.76 | 80 | 1008.5 |
| 20260506143719 | 11 | 238 | 1.6 | 9.7 | 0.00 | 0.76 | 0.76 | 80 | 1008.6 |
| 20260506143711 | 11 | 213 | 3.2 | 16.1 | 0.00 | 0.76 | 0.76 | 79 | 1008.6 |
| 20260506142723 | 11 | 234 | 3.2 | 16.1 | 0.00 | 0.76 | 0.76 | 81 | 1008.5 |
| 20260506142222 | 11 | 263 | 4.8 | 12.9 | 0.00 | 0.76 | 0.76 | 80 | 1008.6 |
| 20260506141944 | 11 | 267 | 4.8 | 12.9 | 0.00 | 0.76 | 0.76 | 80 | 1008.6 |
| 20260506141217 | 11 | 210 | 1.6 | 12.9 | 0.00 | 0.76 | 0.76 | 82 | 1008.6 |
| 20260506140718 | 11 | 223 | 0.0 | 6.4 | 0.00 | 0.76 | 0.76 | 84 | 1008.6 |
| 20260506140218 | 11 | 224 | 1.6 | 8.0 | 0.00 | 0.76 | 0.76 | 84 | 1008.5 |
| 20260506135718 | 11 | 222 | 1.6 | 8.0 | 0.00 | 0.76 | 0.76 | 83 | 1008.5 |
| 20260506135216 | 11 | 224 | 1.6 | 8.0 | 0.00 | 0.76 | 0.76 | 85 | 1008.5 |
| 20260506134716 | 11 | 250 | 0.0 | 6.4 | 0.00 | 0.76 | 0.76 | 85 | 1008.6 |
| 20260506134703 | 11 | 263 | 0.0 | 9.7 | 0.00 | 0.76 | 0.76 | 86 | 1008.7 |
| 20260506133716 | 11 | 263 | 1.6 | 9.7 | 0.00 | 0.76 | 0.76 | 83 | 1008.6 |
| 20260506133657 | 11 | 269 | 0.0 | 8.0 | 0.03 | 0.76 | 0.76 | 84 | 1008.6 |
| 20260506132713 | 11 | 274 | 0.0 | 8.0 | 0.05 | 0.76 | 0.76 | 84 | 1008.6 |
| 20260506132212 | 11 | 250 | 0.0 | 0.0 | 0.05 | 0.76 | 0.76 | 87 | 1008.6 |
| 20260506131720 | 11 | 254 | 0.0 | 9.7 | 0.05 | 0.76 | 0.76 | 87 | 1008.5 |
| 20260506131211 | 11 | 263 | 0.0 | 9.7 | 0.08 | 0.76 | 0.76 | 86 | 1008.5 |
| 20260506130712 | 10 | 250 | 0.0 | 11.3 | 0.13 | 0.76 | 0.76 | 86 | 1008.5 |
| 20260506130212 | 10 | 267 | 0.0 | 11.3 | 0.15 | 0.76 | 0.76 | 86 | 1008.5 |
| 20260506125711 | 11 | 277 | 0.0 | 8.0 | 0.18 | 0.76 | 0.76 | 86 | 1008.5 |
| 20260506125212 | 10 | 254 | 1.6 | 16.1 | 0.18 | 0.76 | 0.76 | 85 | 1008.5 |
| 20260506124713 | 11 | 259 | 3.2 | 16.1 | 0.20 | 0.76 | 0.76 | 86 | 1008.5 |
| 20260506124208 | 11 | 265 | 3.2 | 16.1 | 0.23 | 0.76 | 0.76 | 87 | 1008.5 |
| 20260506123707 | 11 | 248 | 1.6 | 12.9 | 0.23 | 0.76 | 0.76 | 87 | 1008.3 |
| 20260506123207 | 11 | 224 | 0.0 | 9.7 | 0.23 | 0.74 | 0.74 | 88 | 1008.1 |
| 20260506122709 | 11 | 194 | 1.6 | 12.9 | 0.23 | 0.71 | 0.71 | 86 | 1008.1 |
| 20260506122208 | 11 | 223 | 1.6 | 12.9 | 0.25 | 0.71 | 0.71 | 86 | 1008.1 |
| 20260506121707 | 11 | 219 | 0.0 | 6.4 | 0.28 | 0.71 | 0.71 | 87 | 1008.0 |
| 20260506121209 | 11 | 213 | 1.6 | 8.0 | 0.30 | 0.69 | 0.69 | 86 | 1008.1 |
| 20260506120707 | 11 | 212 | 1.6 | 9.7 | 0.30 | 0.64 | 0.64 | 86 | 1008.0 |
| 20260506120208 | 11 | 214 | 1.6 | 9.7 | 0.30 | 0.61 | 0.61 | 87 | 1008.0 |
| 20260506115702 | 11 | 206 | 1.6 | 9.7 | 0.33 | 0.58 | 0.58 | 86 | 1007.9 |
| 20260506115640 | 11 | 220 | 3.2 | 14.5 | 0.33 | 0.58 | 0.58 | 86 | 1007.9 |
| 20260506114649 | 11 | 221 | 1.6 | 14.5 | 0.36 | 0.56 | 0.56 | 86 | 1007.8 |
| 20260506114144 | 12 | 229 | 0.0 | 11.3 | 0.36 | 0.53 | 0.53 | 90 | 1007.8 |
| 20260506113638 | 12 | 270 | 0.0 | 0.0 | 0.36 | 0.51 | 0.51 | 92 | 1007.7 |
| 20260506113132 | 12 | 273 | 0.0 | 0.0 | 0.36 | 0.51 | 0.51 | 91 | 1007.6 |
| 20260506112625 | 12 | 278 | 0.0 | 0.0 | 0.36 | 0.48 | 0.48 | 92 | 1007.6 |
| 20260506112120 | 12 | 211 | 0.0 | 0.0 | 0.36 | 0.46 | 0.46 | 91 | 1007.6 |
| 20260506111613 | 12 | 211 | 0.0 | 0.0 | 0.33 | 0.43 | 0.43 | 91 | 1007.6 |
| 20260506111108 | 12 | 210 | 0.0 | 0.0 | 0.30 | 0.38 | 0.38 | 90 | 1007.6 |
| 20260506110602 | 12 | 201 | 0.0 | 0.0 | 0.28 | 0.33 | 0.33 | 90 | 1007.6 |
| 20260506110056 | 12 | 201 | 0.0 | 0.0 | 0.28 | 0.33 | 0.33 | 90 | 1007.6 |
| 20260506110040 | 12 | 201 | 0.0 | 0.0 | 0.23 | 0.25 | 0.25 | 89 | 1007.7 |
| 20260506105043 | 12 | 201 | 0.0 | 0.0 | 0.20 | 0.23 | 0.23 | 90 | 1007.6 |
| 20260506104538 | 12 | 201 | 0.0 | 0.0 | 0.20 | 0.20 | 0.20 | 90 | 1007.5 |
| 20260506104032 | 12 | 201 | 0.0 | 0.0 | 0.18 | 0.18 | 0.18 | 89 | 1007.5 |
| 20260506103526 | 12 | 201 | 0.0 | 0.0 | 0.15 | 0.15 | 0.15 | 88 | 1007.4 |
| 20260506103456 | 12 | 201 | 0.0 | 0.0 | 0.13 | 0.13 | 0.15 | 87 | 1007.4 |
| 20260506102514 | 12 | 201 | 0.0 | 0.0 | 0.13 | 0.13 | 0.13 | 87 | 1007.3 |
| 20260506102008 | 12 | 201 | 0.0 | 0.0 | 0.10 | 0.10 | 0.10 | 87 | 1007.2 |
| 20260506101503 | 12 | 201 | 0.0 | 0.0 | 0.08 | 0.08 | 0.10 | 88 | 1007.2 |
| 20260506100955 | 12 | 201 | 0.0 | 0.0 | 0.08 | 0.08 | 0.08 | 87 | 1007.1 |
| 20260506100449 | 12 | 201 | 0.0 | 0.0 | 0.05 | 0.05 | 0.05 | 87 | 1007.1 |
| 20260506095944 | 12 | 201 | 0.0 | 0.0 | 0.05 | 0.05 | 0.05 | 87 | 1007.1 |
| 20260506095437 | 12 | 201 | 0.0 | 0.0 | 0.03 | 0.03 | 0.03 | 86 | 1007.2 |
| 20260506094932 | 12 | 201 | 0.0 | 0.0 | 0.00 | 0.00 | 0.00 | 85 | 1007.1 |
| 20260506094426 | 12 | 201 | 0.0 | 0.0 | 0.00 | 0.00 | 0.00 | 84 | 1007.0 |
| 20260506094410 | 12 | 201 | 0.0 | 0.0 | 0.00 | 0.00 | 0.00 | 83 | 1007.0 |
| 20260506093414 | 12 | 201 | 0.0 | 0.0 | 0.00 | 0.00 | 0.00 | 83 | 1006.9 |
| 20260506092907 | 12 | 201 | 0.0 | 0.0 | 0.00 | 0.00 | 0.00 | 83 | 1006.9 |
| 20260506092359 | 12 | 201 | 0.0 | 0.0 | 0.00 | 0.00 | 0.00 | 83 | 1006.8 |
| 20260506092338 | 12 | 195 | 0.0 | 0.0 | 0.00 | 0.00 | 0.00 | 82 | 1006.7 |
| 20260506091347 | 12 | 195 | 0.0 | 0.0 | 0.00 | 0.00 | 0.00 | 82 | 1006.7 |
| 20260506090842 | 12 | 195 | 0.0 | 0.0 | 0.00 | 0.00 | 0.00 | 82 | 1006.7 |
| 20260506090336 | 12 | 195 | 0.0 | 0.0 | 0.00 | 0.00 | 0.00 | 81 | 1006.7 |
| 20260506090322 | 12 | 195 | 0.0 | 0.0 | 0.00 | 0.00 | 0.00 | 82 | 1006.6 |
| 20260506085324 | 12 | 195 | 0.0 | 0.0 | 0.00 | 0.00 | 0.00 | 81 | 1006.6 |
| 20260506084817 | 12 | 195 | 0.0 | 0.0 | 0.00 | 0.00 | 0.00 | 80 | 1006.7 |
| 20260506084312 | 12 | 195 | 0.0 | 0.0 | 0.00 | 0.00 | 0.00 | 80 | 1006.8 |
| 20260506083806 | 12 | 195 | 0.0 | 0.0 | 0.00 | 0.00 | 0.00 | 81 | 1006.6 |
| 20260506083300 | 12 | 195 | 0.0 | 0.0 | 0.00 | 0.00 | 0.00 | 79 | 1006.6 |
| 20260506082754 | 12 | 195 | 0.0 | 0.0 | 0.00 | 0.00 | 0.00 | 82 | 1006.6 |
| 20260506082505 | 12 | 195 | 0.0 | 0.0 | 0.00 | 0.00 | 0.00 | 81 | 1006.4 |
| 20260506081742 | 12 | 195 | 0.0 | 0.0 | 0.00 | 0.00 | 0.00 | 82 | 1006.4 |
| 20260506081236 | 12 | 195 | 0.0 | 0.0 | 0.00 | 0.00 | 0.00 | 82 | 1006.3 |
| 20260506080730 | 12 | 195 | 0.0 | 0.0 | 0.00 | 0.00 | 0.00 | 82 | 1006.3 |
| 20260506080224 | 11 | 195 | 0.0 | 0.0 | 0.00 | 0.00 | 0.00 | 82 | 1006.3 |
| 20260506073408 | 11 | 195 | 0.0 | 0.0 | 0.00 | 0.00 | 0.00 | 84 | 1006.4 |
| 20260506072642 | 11 | 195 | 0.0 | 0.0 | 0.00 | 0.00 | 0.00 | 85 | 1006.6 |
| 20260506072136 | 11 | 195 | 0.0 | 0.0 | 0.00 | 0.03 | 0.00 | 87 | 1006.6 |
| 20260506071630 | 11 | 195 | 0.0 | 0.0 | 0.00 | 0.05 | 0.00 | 87 | 1006.6 |
| 20260506071123 | 11 | 195 | 0.0 | 0.0 | 0.00 | 0.05 | 0.00 | 87 | 1006.4 |
| 20260506070618 | 10 | 195 | 0.0 | 0.0 | 0.00 | 0.05 | 0.00 | 89 | 1006.4 |
| 20260506070554 | 10 | 195 | 0.0 | 0.0 | 0.00 | 0.08 | 0.00 | 89 | 1006.4 |
| 20260506062024 | 9 | 195 | 0.0 | 0.0 | 0.00 | 0.10 | 0.00 | 92 | 1006.6 |
| 20260506061518 | 9 | 195 | 0.0 | 0.0 | 0.00 | 0.13 | 0.00 | 92 | 1006.6 |
| 20260506061452 | 8 | 195 | 0.0 | 0.0 | 0.00 | 0.13 | 0.00 | 92 | 1006.4 |
| 20260506060506 | 8 | 195 | 0.0 | 0.0 | 0.00 | 0.13 | 0.00 | 93 | 1006.6 |
| 20260506050929 | 8 | 195 | 0.0 | 0.0 | 0.00 | 0.13 | 0.00 | 93 | 1006.8 |
| 20260506050904 | 8 | 172 | 0.0 | 0.0 | 0.00 | 0.13 | 0.00 | 94 | 1006.7 |
| 20260506044926 | 8 | 172 | 0.0 | 0.0 | 0.00 | 0.13 | 0.00 | 94 | 1006.6 |
| 20260506044427 | 8 | 172 | 0.0 | 0.0 | 0.00 | 0.13 | 0.00 | 94 | 1006.6 |
| 20260506043925 | 8 | 172 | 0.0 | 0.0 | 0.00 | 0.13 | 0.00 | 94 | 1006.7 |
| 20260506043427 | 8 | 172 | 0.0 | 0.0 | 0.00 | 0.13 | 0.00 | 94 | 1006.8 |
| 20260506042924 | 8 | 172 | 0.0 | 0.0 | 0.00 | 0.13 | 0.00 | 94 | 1006.7 |
| 20260506042919 | 8 | 172 | 0.0 | 0.0 | 0.00 | 0.13 | 0.00 | 94 | 1006.6 |
| 20260506041924 | 7 | 172 | 0.0 | 0.0 | 0.00 | 0.13 | 0.00 | 94 | 1006.6 |
| 20260506041422 | 7 | 172 | 0.0 | 0.0 | 0.00 | 0.13 | 0.00 | 94 | 1006.8 |
| 20260506041410 | 7 | 172 | 0.0 | 0.0 | 0.00 | 0.13 | 0.00 | 93 | 1006.9 |
| 20260506040417 | 7 | 172 | 0.0 | 0.0 | 0.00 | 0.13 | 0.00 | 94 | 1007.0 |
| 20260506040359 | 7 | 172 | 0.0 | 0.0 | 0.00 | 0.13 | 0.00 | 94 | 1007.0 |
| 20260506035413 | 7 | 172 | 0.0 | 0.0 | 0.00 | 0.13 | 0.00 | 94 | 1007.0 |
| 20260506034913 | 7 | 172 | 0.0 | 0.0 | 0.00 | 0.13 | 0.00 | 94 | 1007.1 |
| 20260506034857 | 7 | 172 | 0.0 | 0.0 | 0.00 | 0.13 | 0.00 | 94 | 1007.1 |
| 20260506033913 | 7 | 172 | 0.0 | 0.0 | 0.00 | 0.13 | 0.00 | 94 | 1007.2 |
| 20260506033413 | 7 | 172 | 0.0 | 0.0 | 0.00 | 0.13 | 0.00 | 94 | 1007.2 |
| 20260506033357 | 7 | 172 | 0.0 | 0.0 | 0.00 | 0.13 | 0.00 | 94 | 1007.2 |
| 20260506032412 | 7 | 172 | 0.0 | 0.0 | 0.00 | 0.13 | 0.00 | 94 | 1007.2 |
| 20260506031913 | 7 | 172 | 0.0 | 0.0 | 0.00 | 0.13 | 0.00 | 93 | 1007.3 |
| 20260506031849 | 7 | 172 | 0.0 | 0.0 | 0.00 | 0.13 | 0.00 | 93 | 1007.4 |
| 20260506030910 | 7 | 172 | 0.0 | 0.0 | 0.00 | 0.13 | 0.00 | 93 | 1007.3 |
| 20260506030408 | 7 | 172 | 0.0 | 0.0 | 0.00 | 0.13 | 0.00 | 93 | 1007.4 |
| 20260506025909 | 7 | 172 | 0.0 | 0.0 | 0.00 | 0.13 | 0.00 | 93 | 1007.3 |
| 20260506025410 | 7 | 172 | 0.0 | 0.0 | 0.00 | 0.13 | 0.00 | 93 | 1007.4 |
| 20260506025354 | 7 | 172 | 0.0 | 0.0 | 0.00 | 0.13 | 0.00 | 93 | 1007.4 |
| 20260506024410 | 7 | 172 | 0.0 | 0.0 | 0.00 | 0.13 | 0.00 | 93 | 1007.5 |
| 20260506023909 | 7 | 172 | 0.0 | 0.0 | 0.00 | 0.13 | 0.00 | 93 | 1007.4 |
| 20260506023412 | 7 | 172 | 0.0 | 0.0 | 0.00 | 0.13 | 0.00 | 93 | 1007.4 |
| 20260506023351 | 8 | 172 | 0.0 | 0.0 | 0.00 | 0.13 | 0.00 | 93 | 1007.5 |
| 20260506022405 | 8 | 172 | 0.0 | 0.0 | 0.00 | 0.13 | 0.00 | 93 | 1007.5 |
| 20260506021906 | 8 | 172 | 0.0 | 0.0 | 0.00 | 0.13 | 0.00 | 93 | 1007.5 |
| 20260506021406 | 8 | 172 | 0.0 | 0.0 | 0.00 | 0.13 | 0.00 | 93 | 1007.4 |
| 20260506020906 | 8 | 172 | 0.0 | 0.0 | 0.00 | 0.13 | 0.00 | 93 | 1007.4 |
| 20260506020405 | 8 | 172 | 0.0 | 0.0 | 0.00 | 0.13 | 0.00 | 93 | 1007.4 |
| 20260506015904 | 8 | 172 | 0.0 | 0.0 | 0.00 | 0.13 | 0.00 | 93 | 1007.4 |
| 20260506015404 | 8 | 172 | 0.0 | 0.0 | 0.00 | 0.13 | 0.00 | 92 | 1007.5 |
| 20260506014906 | 8 | 172 | 0.0 | 0.0 | 0.00 | 0.13 | 0.00 | 93 | 1007.5 |
| 20260506014405 | 8 | 172 | 0.0 | 0.0 | 0.00 | 0.13 | 0.00 | 92 | 1007.6 |
| 20260506013906 | 8 | 172 | 0.0 | 0.0 | 0.00 | 0.13 | 0.00 | 92 | 1007.5 |
| 20260506013403 | 8 | 172 | 0.0 | 0.0 | 0.00 | 0.13 | 0.00 | 92 | 1007.6 |
| 20260506012900 | 8 | 172 | 0.0 | 0.0 | 0.00 | 0.13 | 0.00 | 92 | 1007.8 |
| 20260506012400 | 8 | 172 | 0.0 | 0.0 | 0.00 | 0.13 | 0.00 | 92 | 1007.9 |
| 20260506011859 | 8 | 172 | 0.0 | 0.0 | 0.00 | 0.13 | 0.00 | 93 | 1007.9 |
| 20260506011356 | 8 | 172 | 0.0 | 0.0 | 0.00 | 0.13 | 0.00 | 92 | 1008.0 |
| 20260506010856 | 8 | 172 | 0.0 | 0.0 | 0.00 | 0.13 | 0.00 | 92 | 1008.1 |
| 20260506010356 | 8 | 172 | 0.0 | 0.0 | 0.00 | 0.13 | 0.00 | 92 | 1008.0 |
| 20260506005854 | 8 | 172 | 0.0 | 0.0 | 0.00 | 0.13 | 0.00 | 92 | 1008.0 |
| 20260506005354 | 8 | 172 | 0.0 | 0.0 | 0.00 | 0.13 | 0.00 | 92 | 1008.1 |
| 20260506004855 | 8 | 172 | 0.0 | 0.0 | 0.00 | 0.13 | 0.00 | 92 | 1008.3 |
| 20260506004356 | 8 | 172 | 0.0 | 0.0 | 0.00 | 0.13 | 0.00 | 92 | 1008.3 |
| 20260506003854 | 8 | 172 | 0.0 | 0.0 | 0.00 | 0.13 | 0.00 | 92 | 1008.3 |
| 20260506003352 | 8 | 172 | 0.0 | 0.0 | 0.00 | 0.13 | 0.00 | 92 | 1008.4 |
| 20260506002853 | 8 | 172 | 0.0 | 0.0 | 0.00 | 0.13 | 0.00 | 92 | 1008.5 |
| 20260506002347 | 8 | 172 | 0.0 | 0.0 | 0.00 | 0.13 | 0.00 | 92 | 1008.4 |
| 20260506001841 | 8 | 172 | 0.0 | 0.0 | 0.00 | 0.13 | 0.00 | 92 | 1008.4 |
| 20260506001335 | 8 | 172 | 0.0 | 0.0 | 0.00 | 0.13 | 0.00 | 92 | 1008.4 |
| 20260506000829 | 8 | 172 | 0.0 | 0.0 | 0.00 | 0.13 | 0.00 | 92 | 1008.5 |
| 20260506000323 | 8 | 172 | 0.0 | 0.0 | 0.00 | 0.13 | 0.00 | 92 | 1008.4 |
| 20260505235816 | 8 | 172 | 0.0 | 0.0 | 0.00 | 0.13 | 0.00 | 92 | 1008.5 |
| 20260505235311 | 8 | 172 | 0.0 | 0.0 | 0.00 | 0.13 | 0.00 | 91 | 1008.6 |
| 20260505234804 | 8 | 172 | 0.0 | 0.0 | 0.00 | 0.13 | 0.00 | 91 | 1008.6 |
| 20260505234517 | 8 | 172 | 0.0 | 0.0 | 0.00 | 0.13 | 0.00 | 92 | 1008.7 |
| 20260505233753 | 8 | 172 | 0.0 | 0.0 | 0.00 | 0.13 | 0.00 | 92 | 1008.7 |
| 20260505233247 | 8 | 172 | 0.0 | 0.0 | 0.00 | 0.13 | 0.00 | 91 | 1008.8 |
| 20260505232741 | 9 | 172 | 0.0 | 0.0 | 0.00 | 0.13 | 0.00 | 91 | 1008.9 |
| 20260505232717 | 9 | 172 | 0.0 | 0.0 | 0.00 | 0.13 | 0.00 | 91 | 1008.9 |
| 20260505231729 | 9 | 172 | 0.0 | 0.0 | 0.00 | 0.13 | 0.00 | 91 | 1008.9 |
| 20260505231710 | 9 | 172 | 0.0 | 0.0 | 0.00 | 0.13 | 0.00 | 91 | 1008.9 |
| 20260505230717 | 9 | 172 | 0.0 | 0.0 | 0.00 | 0.13 | 0.00 | 91 | 1009.0 |
| 20260505230211 | 9 | 172 | 0.0 | 0.0 | 0.00 | 0.13 | 0.00 | 91 | 1009.0 |
| 20260505230015 | 9 | 172 | 0.0 | 0.0 | 0.00 | 0.13 | 0.00 | 91 | 1009.1 |
| 20260505225925 | 8 | 172 | 0.0 | 0.0 | 0.00 | 0.13 | 0.00 | 91 | 1009.1 |
| 20260505224654 | 8 | 172 | 0.0 | 0.0 | 0.00 | 0.13 | 0.00 | 91 | 1009.1 |
| 20260505224147 | 8 | 172 | 0.0 | 0.0 | 0.00 | 0.13 | 0.00 | 91 | 1009.1 |
| 20260505223641 | 8 | 172 | 0.0 | 0.0 | 0.00 | 0.13 | 0.00 | 91 | 1009.1 |
| 20260505223632 | 8 | 172 | 0.0 | 0.0 | 0.00 | 0.13 | 0.00 | 91 | 1009.1 |
| 20260505222629 | 8 | 172 | 0.0 | 0.0 | 0.00 | 0.13 | 0.00 | 90 | 1009.3 |
| 20260505222123 | 9 | 172 | 0.0 | 0.0 | 0.00 | 0.13 | 0.00 | 90 | 1009.1 |
| 20260505222051 | 9 | 172 | 0.0 | 0.0 | 0.00 | 0.13 | 0.00 | 89 | 1009.0 |
| 20260505221111 | 9 | 173 | 0.0 | 0.0 | 0.00 | 0.13 | 0.00 | 90 | 1008.8 |
| 20260505221056 | 9 | 182 | 0.0 | 0.0 | 0.00 | 0.13 | 0.00 | 90 | 1009.0 |
| 20260505220059 | 8 | 238 | 0.0 | 0.0 | 0.00 | 0.13 | 0.00 | 91 | 1009.0 |
| 20260505215553 | 8 | 238 | 0.0 | 0.0 | 0.00 | 0.13 | 0.13 | 91 | 1009.1 |
| 20260505215047 | 8 | 238 | 0.0 | 0.0 | 0.00 | 0.13 | 0.13 | 91 | 1009.3 |
| 20260505214541 | 8 | 240 | 0.0 | 0.0 | 0.00 | 0.13 | 0.13 | 90 | 1009.5 |
| 20260505214035 | 8 | 240 | 0.0 | 0.0 | 0.00 | 0.13 | 0.13 | 90 | 1009.3 |
| 20260505213529 | 8 | 240 | 0.0 | 0.0 | 0.00 | 0.13 | 0.13 | 90 | 1009.3 |
| 20260505213024 | 8 | 240 | 0.0 | 0.0 | 0.00 | 0.13 | 0.13 | 89 | 1009.3 |
| 20260505212517 | 9 | 240 | 0.0 | 0.0 | 0.00 | 0.13 | 0.13 | 88 | 1009.3 |
| 20260505212012 | 9 | 240 | 0.0 | 0.0 | 0.00 | 0.13 | 0.13 | 88 | 1009.3 |
| 20260505211505 | 9 | 240 | 0.0 | 0.0 | 0.00 | 0.13 | 0.13 | 88 | 1009.4 |
| 20260505211000 | 9 | 240 | 0.0 | 0.0 | 0.00 | 0.13 | 0.13 | 87 | 1009.5 |
| 20260505210453 | 9 | 240 | 0.0 | 0.0 | 0.00 | 0.13 | 0.13 | 87 | 1009.4 |
| 20260505205946 | 9 | 240 | 0.0 | 0.0 | 0.00 | 0.13 | 0.13 | 87 | 1009.5 |
| 20260505205441 | 9 | 240 | 0.0 | 0.0 | 0.00 | 0.13 | 0.13 | 87 | 1009.4 |
| 20260505204934 | 10 | 240 | 0.0 | 0.0 | 0.00 | 0.13 | 0.13 | 88 | 1009.4 |
| 20260505204429 | 10 | 240 | 0.0 | 0.0 | 0.00 | 0.13 | 0.13 | 88 | 1009.4 |
| 20260505203923 | 10 | 240 | 0.0 | 0.0 | 0.00 | 0.13 | 0.13 | 89 | 1009.3 |
| 20260505203417 | 10 | 240 | 0.0 | 0.0 | 0.00 | 0.13 | 0.13 | 89 | 1009.4 |
| 20260505203400 | 10 | 240 | 0.0 | 0.0 | 0.00 | 0.13 | 0.13 | 88 | 1009.5 |
| 20260505202405 | 10 | 240 | 0.0 | 0.0 | 0.00 | 0.13 | 0.13 | 88 | 1009.5 |
| 20260505201859 | 10 | 240 | 0.0 | 0.0 | 0.00 | 0.13 | 0.13 | 87 | 1009.3 |
| 20260505201353 | 10 | 240 | 0.0 | 0.0 | 0.00 | 0.13 | 0.13 | 86 | 1009.3 |
| 20260505200847 | 10 | 240 | 0.0 | 0.0 | 0.00 | 0.13 | 0.13 | 86 | 1009.1 |
| 20260505200341 | 11 | 240 | 0.0 | 1.6 | 0.00 | 0.13 | 0.13 | 85 | 1009.1 |
| 20260505195835 | 11 | 240 | 0.0 | 1.6 | 0.00 | 0.13 | 0.13 | 84 | 1009.0 |
| 20260505195329 | 11 | 240 | 0.0 | 0.0 | 0.00 | 0.13 | 0.13 | 83 | 1009.0 |
| 20260505194823 | 11 | 240 | 0.0 | 0.0 | 0.00 | 0.13 | 0.13 | 83 | 1008.8 |
| 20260505194317 | 11 | 240 | 0.0 | 3.2 | 0.00 | 0.13 | 0.13 | 83 | 1008.9 |
| 20260505193811 | 11 | 240 | 0.0 | 3.2 | 0.00 | 0.13 | 0.13 | 83 | 1008.9 |
| 20260505193305 | 11 | 240 | 0.0 | 3.2 | 0.00 | 0.13 | 0.13 | 83 | 1008.8 |
| 20260505193236 | 11 | 240 | 0.0 | 0.0 | 0.00 | 0.13 | 0.13 | 83 | 1008.8 |
| 20260505192253 | 12 | 240 | 0.0 | 0.0 | 0.00 | 0.13 | 0.13 | 82 | 1008.7 |
| 20260505191747 | 12 | 240 | 0.0 | 0.0 | 0.00 | 0.13 | 0.13 | 82 | 1008.8 |
| 20260505191240 | 12 | 240 | 0.0 | 0.0 | 0.00 | 0.13 | 0.13 | 82 | 1008.7 |
| 20260505190735 | 12 | 240 | 0.0 | 0.0 | 0.00 | 0.13 | 0.13 | 81 | 1008.7 |
| 20260505190229 | 12 | 240 | 0.0 | 0.0 | 0.00 | 0.13 | 0.13 | 80 | 1008.6 |
| 20260505190210 | 13 | 240 | 0.0 | 0.0 | 0.00 | 0.13 | 0.13 | 80 | 1008.5 |